Regional Weather Roundup
Issued by NWS

Home | Current Version | Previous Version | Graphics & Text | Print | Product List | Glossary On
Versions: 1 2 3 4 5 6 7 8 9 10 11 12 13 14 15 16 17 18 19 20 21 22 23 24 25 26 27 28 29 30 31 32 33 34 35 36 37 38 39 40 41 42 43 44 45 46 47 48 49 50
000
ASUS43 KFSD 222310
RWRSD

WEATHER ROUNDUP FOR SOUTH DAKOTA
NATIONAL WEATHER SERVICE SIOUX FALLS SD
600 PM CDT FRI SEP 22 2017

NOTE: "FAIR" INDICATES FEW OR NO CLOUDS BELOW 12,000 FEET WITH NO
SIGNIFICANT WEATHER AND/OR OBSTRUCTIONS TO VISIBILITY.


SDZ001>005-009-010-012>017-230000-
NORTHWEST AND NORTH CENTRAL SOUTH DAKOTA

CITY           SKY/WX    TMP DP  RH WIND       PRES   REMARKS
BUFFALO          N/A     54  35  48 N18       29.88R
FAITH            N/A     53  41  63 N21G30    29.89R
MOBRIDGE       CLOUDY    55  47  74 NW17G24   29.81R
$$

SDZ012>016-024>037-041>051-057-063-072>074-230000-
SOUTHWEST AND SOUTH CENTRAL SOUTH DAKOTA

CITY           SKY/WX    TMP DP  RH WIND       PRES   REMARKS
RAPID CTY ARPT SUNNY     55  37  50 N26G33    29.88R
PIERRE         MOSUNNY   62  49  62 NW21      29.81R
CUSTER         SUNNY     57  40  52 SE6       29.91R
ELLSWORTH AFB  MOSUNNY   56  38  52 N24G36    29.88R
PHILIP         CLOUDY    60  43  53 NW17      29.87R
PINE RIDGE     SUNNY     65  43  44 NE15G23   29.86R
SPEARFISH      FAIR      52  39  62 NW10G17   29.95R
WINNER         FAIR      71  52  50 NW20G25   29.77F
$$

SDZ004>011-016>023-039-040-230000-
NORTHEAST SOUTH DAKOTA

CITY           SKY/WX    TMP DP  RH WIND       PRES   REMARKS
ABERDEEN       SUNNY     78  61  55 W20G28    29.67R
WATERTOWN      CLOUDY    84  68  58 W14       29.68R
BROOKINGS      MOSUNNY   86  70  58 S15       29.71R
SISSETON         N/A     89  71  55 S10       29.63S HX  95
$$

SDZ017-020-022-023-036>040-048>070-230000-
SOUTHEAST SOUTH DAKOTA

CITY           SKY/WX    TMP DP  RH WIND       PRES   REMARKS
SIOUX FALLS    PTSUNNY   89  71  55 S20G25    29.70F HX  95
HURON          MOSUNNY   81  56  42 W17       29.69R
CHAMBERLAIN    MOSUNNY   75  56  52 W17G24    29.76R
MITCHELL       CLOUDY    80  57  45 W13       29.71R
YANKTON        MOSUNNY   90  68  48 S18G25    29.67F
$$

ABBREVIATIONS USED IN REMARKS
   TC - TEMPERATURE IN CELSIUS
  WCI - WIND CHILL INDEX
   HX - HEAT INDEX
  VSB - VISIBILITY





USA.gov is the U.S. government's official web portal to all federal, state and local government web resources and services.